Flag for Belgium Weather past 2 weeks in Charleroi, Belgium

Now
50 °F

Clear.


Feels Like: 47 °F
Forecast: 48 / 66 °F
Wind: 7 mph from Southwest

Location: Charleroi / Gosselies

Current Time: Aug 21, 2014 at 1:29:22 AM

Latest Report: Aug 21, 2014 at 12:50 AM


Visibility: 10 mi

Pressure: 30.07 "Hg

Humidity: 88%

Dew point: 46 °F

Location of CharleroiLocation

Historic Weather in Charleroi — Graph

°F

Charleroi temperature yesterday

Maximum temperature yesterday: 63 °F (at 1:50 PM)
Minimum temperature yesterday: 46 °F (at 4:20 AM)
Average temperature yesterday: 53 °F

Past Weeks' High & Low Weather Summary

 TemperatureHumidityPressure
High77 °F (Aug 7, 4:50 PM)100% (Aug 6, 10:50 PM)30.18 "Hg (Aug 6, 10:50 PM)
Low46 °F (Aug 20, 4:20 AM)43% (Aug 18, 2:20 PM)29.53 "Hg (Aug 10, 5:50 PM)
Average60 °F79%29.90 "Hg
* Reported Aug 6 12:20 AM — Aug 21 12:20 AM, Charleroi, Weather by CustomWeather, © 2014

Note: Actual official high and low records may vary slightly from our data, if they occured in-between our weather recording intervals... More about our weather records

Advertising

Charleroi weather history for previous 24 hours

 ConditionsComfort  
Time TempWeatherWind HumidityBarometerVisibility
12:20 AM
Aug 21
50 °FClear.6 mph94%30.07 "Hg10 mi
11:50 PM
Aug 20
50 °FClear.5 mph94%30.04 "Hg10 mi
11:20 PM50 °FClear.6 mph94%30.04 "Hg10 mi
10:50 PM50 °FPassing clouds.5 mph94%30.04 "HgN/A
10:20 PM50 °FPassing clouds.5 mph94%30.04 "HgN/A
9:50 PM52 °FPassing clouds.2 mph88%30.04 "HgN/A
9:20 PM52 °FScattered clouds.3 mph88%30.04 "HgN/A
8:50 PM52 °FScattered clouds.1 mph88%30.04 "HgN/A
8:20 PM52 °FPassing clouds.3 mph88%30.04 "HgN/A
7:50 PM52 °FSprinkles. Scattered clouds.3 mph88%30.04 "HgN/A
7:20 PM52 °FSprinkles. Scattered clouds.5 mph88%30.04 "HgN/A
6:50 PM54 °FSprinkles. Scattered clouds.7 mph82%30.04 "HgN/A
6:20 PM55 °FPassing clouds.6 mph72%30.04 "HgN/A
5:50 PM59 °FPassing clouds.5 mph63%30.01 "HgN/A
5:20 PM59 °FPassing clouds.8 mph63%30.01 "HgN/A
4:50 PM57 °FSprinkles. Scattered clouds.7 mph72%30.01 "HgN/A
4:20 PM54 °FSprinkles. Scattered clouds.14 mph82%30.04 "HgN/A
3:50 PM57 °FScattered clouds.10 mph67%30.04 "HgN/A
3:20 PM55 °FScattered clouds.6 mph72%30.04 "HgN/A
2:50 PM55 °FSprinkles. Scattered clouds.5 mph77%30.04 "HgN/A
2:20 PM55 °FScattered clouds.9 mph67%30.04 "HgN/A
1:50 PM63 °FPartly sunny.14 mph45%30.04 "HgN/A
1:20 PM61 °FScattered clouds.10 mph52%30.04 "HgN/A
12:50 PM59 °FScattered clouds.10 mph59%30.04 "HgN/A
12:20 PM59 °FScattered clouds.8 mph59%30.04 "HgN/A
11:50 AM59 °FScattered clouds.9 mph59%30.04 "HgN/A
11:20 AM59 °FPassing clouds.9 mph63%30.04 "HgN/A
10:50 AM57 °FPassing clouds.8 mph67%30.04 "HgN/A
10:20 AM57 °FSunny.9 mph72%30.04 "Hg10 mi
9:50 AM55 °FSunny.9 mph72%30.04 "Hg10 mi
9:20 AM54 °FSunny.8 mph77%30.04 "Hg10 mi
8:50 AM52 °FSunny.8 mph77%30.04 "Hg10 mi
8:20 AM50 °FSunny.9 mph82%30.04 "Hg10 mi
7:50 AM48 °FSunny.9 mph82%30.04 "Hg10 mi
7:20 AM46 °FClear.7 mph87%30.01 "Hg10 mi
6:50 AM46 °FClear.7 mph87%30.01 "Hg10 mi
6:20 AM46 °FClear.7 mph87%30.01 "Hg10 mi
5:50 AM46 °FPassing clouds.7 mph87%30.01 "HgN/A
5:20 AM46 °FPassing clouds.5 mph87%30.01 "HgN/A
4:50 AM46 °FPassing clouds.5 mph87%30.01 "HgN/A
4:20 AM46 °FPassing clouds.5 mph93%30.01 "HgN/A
3:50 AM48 °FPassing clouds.6 mph87%30.01 "HgN/A
3:20 AM48 °FPassing clouds.5 mph87%30.01 "HgN/A
2:50 AM50 °FPassing clouds.6 mph82%30.01 "HgN/A
2:20 AM50 °FPassing clouds.7 mph82%30.01 "HgN/A
1:50 AM50 °FPassing clouds.6 mph82%30.01 "HgN/A
1:20 AM50 °FPassing clouds.8 mph82%30.01 "HgN/A
Weather by CustomWeather, © 2014

See weather overviewHow to use our weather pages